Retour au catalogue

ONEWEB-0272

ActifCommunicationsPO
NORAD 48990·PAYLOAD·🇬🇧 United Kingdom

Lancé Jul 1, 2021 depuis Vostochny Cosmodrome

Loading…

Prochains Passages (prochaines 24 heures)

TLE

FraisSource: CelesTrak SupGP

Époque: Sep 14, 2026, 14:04 UTC

1 48990C 21060Z   26257.58661296 -.00000076  00000+0 -19779-3 0  2571
2 48990  87.9145 211.0288 0002362  82.4457  18.0467 13.16591014    19

Suivez ONEWEB-0272 en temps réel avec AllMySat

Download on the App Store